DELTA 1 DEB, 12535

Orbit data source: Space-Track

DELTA 1 DEB, 12535 is space debris in LEO originally from a launch on Thu, 29 Jul 1976 UTC launched from the Air Force Western Test Range (AFWTR). Debris objects in space refer to the collection of defunct objects orbiting the Earth. Examples of debris include non-operational satellites, rocket bodies, and fragments generated from explosions, collisions, or faulty payload assembly.

Loading next visibility...
Identifier
12535, 1976-077DQ
Orbit
LEO
Country
Flag of USUS
Related business
Manufacturer
Unknown
Mission
Spacecraft
Bus & Motor
Unknown
Mass
Unknown
Launch date (UTC)
1976-07-29 (50 years ago)
Launch vehicle
Unknown
Launch site
Air Force Western Test Range (AFWTR)
Object type
Payload
Rocket body
Debris
Shape & HBR
Unknown shape, 0.1 m
Radar Cross Section
Small (<0.1 m²)

Expand to show TLE details & history
Last TLE update: 14 hours ago

TLE from 14 hours ago
0 DELTA 1 DEB
1 12535U 76077DQ  26118.80248895 -.00000079  00000-0 -60907-3 0  9998
2 12535 102.3293  68.1270 0400480 264.9701 117.9972 11.66348857 56890
Epoch: 2026-04-28T19:15Z
TLE epoch observation values (Epoch: 2026-04-28T19:15:35.045Z)
Latitude
26.2853°
Longitude
-83.71036°
Altitude
2,002.328 km
Speed
6.83 km/s
True Right ascension
04h 07m 49s
True Declination
26° 10' 09"
Sunlit
Object was in daylight at epoch
Visualization orbit readout
Latitude
Unknown
Longitude
Unknown
Altitude
Unknown
Speed
Unknown
Apparent Right ascension
Unknown
Apparent Declination
Unknown
Sunlit
N/A
Visualization observer readout
Local Sidereal Time
16:44:33
Azimuth
Unknown
Elevation
Unknown
Doppler factor
Unknown
Orbital elements
Apogee altitude
2,161.653 km
Perigee altitude
1,503.988 km
Semi-major axis
8,210.957 km
Eccentricity
0.04005
Inclination
102.3293°
RAAN
68.127°
Arg. of periapsis
264.9701°
True anomaly
121.95304°
Mean anomaly
117.9972°
Eccentric anomaly
119.98467°
Mean motion
2.91711 °/min
Orbital period
123.41 mins
BSTAR
-0.00060907
Loading maneuver chart data...
Computing Atmospheric mass density...
Loading historical data...
Loading historical data...
Loading historical data...
Loading historical data...
Loading historical data...
Loading historical data...
Loading historical data...

Documentation

Showing up to 5 results
|